Location: Islay
(41.3172°N, 105.1346°W)
Time: 19:59:10
(UTC+00:00)

ACS3 Solar Sail - Pass Details

Date: 19 April 2026
Orbit: 894 x 947 km, 97.2° (Epoch: 12 May)

Event Time Altitude Azimuth Distance (km) Brightness Sun altitude
Rises 09:26:44 0° 359° (N) 3,544 5.4 -27.5°
Reaches altitude 10° 09:29:35 10° 346° (NNW) 2,606 4.4 -27.1°
Enters shadow 09:33:45 24° 300° (WNW) 1,822 3.1 -26.6°
